Location: Poughquag
(41.6090°N, 73.6820°W)
Time: 12:22:55
(UTC-04:00)

Tiros 1 despin weight - Pass Details

Date: 30 May 2020
Orbit: 593 x 642 km, 48.2° (Epoch: 07 July)

Event Time Altitude Azimuth Distance (km) Brightness Sun altitude
Rises 17:34:09 0° 294° (WNW) 2,866 ? 28.7°
Reaches altitude 10° 17:36:34 10° 288° (WNW) 1,951 ? 28.3°
Maximum altitude 17:40:45 41° 218° (SW) 876 ? 27.5°
Drops below altitude 10° 17:44:54 10° 148° (SSE) 1,921 ? 26.7°
Sets 17:47:15 0° 141° (SE) 2,816 ? 26.3°
